STARLINK-1166, 45060

Orbit data source: Space-Track

STARLINK-1166, 45060 is a payload satellite owned by SpaceX/Seattle (US) in LEO that was launched on Wed, 29 Jan 2020 UTC via an FALCON 9 launch vehicle from the Air Force Eastern Test Range (AFETR). Payloads include a variety of satellites, spacecraft, and rockets equipped with specific instruments for various scientific and technological missions. These include communications satellites like Starlink; space stations such as the ISS; scientific satellites like the Hubble; Earth observation satellites from companies like Planet Labs, Umbra, and HawkEye 360; GPS; miniature CubeSats for education and research; and military/defense satellites.

Loading next visibility...
STARLINK-1166 details
Identifier
45060, 2020-006S
Orbit
LEO
Last TLE update11 hours ago
Origin
Flag of USSpaceX/Seattle (US)
ManufacturerSpaceX/Seattle
MissionOperational Commercial Communications
Bus & MotorSTARLINK, Unknown motor
Mass260 kg wet, ~248 kg dry
Launch date (UTC)
2020-01-29 (5 years ago)
Launch vehicle
FALCON 9
Launch site
Air Force Eastern Test Range (AFETR)
Object type
Payload
Rocket body
Debris
Shape & HBRBox + 1 Pan, 8.86 m
Radar Cross Section13.562 m², Large (>1 m²)

Expand to show TLE details & history

TLE from 11 hours ago
0 STARLINK-1166
1 45060U 20006S   24339.90798256  .00004427  00000-0  31578-3 0  9994
2 45060  53.0530 190.6591 0001385  98.2274 261.8872 15.06415317267162
Epoch: 2024-12-04T21:47Z
Definitive object data (Epoch: 2024-12-04T21:47:29.693Z)
Latitude-0.00001°
Longitude149.58898°
Altitude548.179 km
Speed7.589 km/s
True Right ascension12h 42m 38s
True Declination0° 00' 00"
Sunlit
Object was in daylight at TLE epoch
Visualization TLE readout
Latitude49.59374°
Longitude-151.0719°
Altitude552.029 km
Speed7.592 km/s
Apparent Right ascension18h 00m 08s
Apparent Declination7° 35' 28"
Sunlit
Object is in daylight
Visualization observer readout
Local Sidereal Time07:13:31
Azimuth23.87° NE
Elevation-39.558°
Doppler factor1
Orbital elements
Apogee altitude548.395 km
Perigee altitude546.476 km
Semi-major axis6,925.573 km
Eccentricity0.0001385
Inclination53.053°
RAAN190.6591°
Arg. of periapsis98.2274°
True anomaly261.87149°
Mean anomaly261.8872°
Eccentric anomaly261.87934°
Mean motion3.76582 °/min
BSTAR0.00031578
Orbital period95.6 mins
Loading maneuver chart data...
Loading historical data...
Loading historical data...
Loading historical data...
Loading historical data...
Loading historical data...
Loading historical data...
Loading historical data...

STARLINK-1166 Visibility forecast

Observer location: undefined°, undefined

Span
Click to sort rows by Start time (UTC) header in descending order
Start Az.
Max El. time (UTC)
Max El. Az.
Max El.
End time (UTC)
End Az.
6 mins2024-12-05 17:05:19.406Z232.416° WSW2024-12-05 17:08:19.406Z353.422° N44.771°2024-12-05 17:11:19.406Z48.407° ENE
5 mins2024-12-05 18:46:19.406Z303.527° NW2024-12-05 18:48:19.406Z340.571° N19.186°2024-12-05 18:51:19.406Z28.212° NE
4 mins2024-12-05 22:08:19.406Z351.838° N2024-12-05 22:10:19.406Z32.798° NE19.899°2024-12-05 22:12:19.406Z66.425° ENE
6 mins2024-12-05 23:47:19.406Z308.315° NW2024-12-05 23:49:19.406Z299.666° NW43.045°2024-12-05 23:53:19.406Z132.832° SE
|